Logan, UT

8:20 PM MDT on July 27, 2016 (GMT -0600)
Logan-Cache

Weather History for KLGU - October, 2013

Change the Weather History Date:

Friday, October 18, 2013

  Actual Average Record
Temperature  
Mean Temperature 42 °F -  
Max Temperature 55 °F 61 °F 77 °F (2003)
Min Temperature 28 °F 32 °F 20 °F (1964)
Degree Days  
Heating Degree Days 24    
Moisture  
Dew Point 26 °F    
Average Humidity 58    
Maximum Humidity 85    
Minimum Humidity 26    
Precipitation  
Precipitation 0.00 in - - ()
Sea Level Pressure  
Sea Level Pressure 30.23 in    
Wind  
Wind Speed 1 mph (East)    
Max Wind Speed 6 mph    
Max Gust Speed -    
Visibility 10 miles    
Events      
Averages and records for this station are not official NWS values.
T = Trace of Precipitation, MM = Missing Value Source: NWS Daily Summary

Daily Weather History Graph

Daily Weather History Graph

Search for Another Location

Airport or City:

Trip Planner

Search our weather history database for the weather conditions in past years. The results will help you decide how hot, cold, wet, or windy it might be!

Date:

Astronomy

Oct. 18, 2013 Rise Set
Actual Time 7:43 AM MDT 6:40 PM MDT
Civil Twilight 7:15 AM MDT 7:09 PM MDT
Nautical Twilight 6:42 AM MDT 7:41 PM MDT
Astronomical Twilight 6:10 AM MDT 8:13 PM MDT
Moon 6:32 PM MDT (10/18) 7:22 AM MDT (10/18)
Length of Visible Light 11h 53m
Length of Day
10h 57m
Full, 100% of the Moon is Illuminated
Oct 18
Full
Oct 18
Full
Oct 26
Last Quarter
Nov 3
New
Nov 9
First Quarter

Hourly Weather History & Observations

Time (MDT) Temp. Windchill Dew Point Humidity Pressure Visibility Wind Dir Wind Speed Gust Speed Precip Events Conditions
12:51 AM 39.9 °F - 32.0 °F 73% 30.16 in 10.0 mi Calm Calm - N/A   Overcast
1:51 AM 39.0 °F - 33.1 °F 79% 30.16 in 10.0 mi Calm Calm - N/A   Overcast
2:51 AM 37.0 °F - 30.9 °F 79% 30.18 in 10.0 mi Calm Calm - N/A   Mostly Cloudy
3:51 AM 39.0 °F 36.8 °F 28.9 °F 67% 30.18 in 10.0 mi NNE 3.5 mph - N/A   Overcast
4:51 AM 36.0 °F - 30.0 °F 79% 30.19 in 10.0 mi Calm Calm - N/A   Overcast
5:51 AM 36.0 °F 33.3 °F 28.9 °F 76% 30.20 in 10.0 mi WSW 3.5 mph - N/A   Clear
6:51 AM 30.9 °F - 26.1 °F 82% 30.25 in 10.0 mi Calm Calm - N/A   Clear
7:51 AM 28.9 °F - 25.0 °F 85% 30.30 in 10.0 mi Calm Calm - N/A   Partly Cloudy
8:51 AM 36.0 °F - 28.9 °F 76% 30.30 in 10.0 mi Calm Calm - N/A   Clear
9:51 AM 39.0 °F - 32.0 °F 76% 30.30 in 10.0 mi Calm Calm - N/A   Clear
10:51 AM 44.1 °F - 28.9 °F 55% 30.29 in 10.0 mi Calm Calm - N/A   Clear
11:51 AM 46.9 °F - 27.0 °F 46% 30.28 in 10.0 mi Calm Calm - N/A   Clear
12:51 PM 51.1 °F - 24.1 °F 35% 30.25 in 10.0 mi Calm Calm - N/A   Clear
1:51 PM 53.1 °F - 21.0 °F 29% 30.23 in 10.0 mi Calm Calm - N/A   Clear
2:51 PM 55.9 °F - 21.9 °F 27% 30.21 in 10.0 mi NE 5.8 mph - N/A   Clear
3:51 PM 54.0 °F - 19.9 °F 26% 30.20 in 10.0 mi South 3.5 mph - N/A   Clear
4:51 PM 55.9 °F - 21.0 °F 26% 30.19 in 10.0 mi Calm Calm - N/A   Clear
5:51 PM 55.0 °F - 21.0 °F 27% 30.19 in 10.0 mi Calm Calm - N/A   Clear
6:51 PM 52.0 °F - 21.9 °F 31% 30.21 in 10.0 mi Calm Calm - N/A   Clear
7:51 PM 46.9 °F - 26.1 °F 44% 30.25 in 10.0 mi Calm Calm - N/A   Clear
8:51 PM 41.0 °F 38.0 °F 27.0 °F 57% 30.25 in 10.0 mi East 4.6 mph - N/A   Clear
9:51 PM 39.9 °F 37.8 °F 26.1 °F 58% 30.25 in 10.0 mi ESE 3.5 mph - N/A   Clear
10:51 PM 35.1 °F - 27.0 °F 72% 30.26 in 10.0 mi Calm Calm - N/A   Clear
11:51 PM 34.0 °F 31.0 °F 27.0 °F 75% 30.25 in 10.0 mi East 3.5 mph - N/A   Clear